Flag for Canada Weather past 2 weeks in Sault Ste. Marie, Ontario, Canada

55 °F

Broken clouds.

Feels Like: 51 °F
Forecast: 44 / 56 °F
Wind: 20 mph from Northwest

Location: Sault Ste Marie

Current Time: Oct 9, 2015 at 4:13:45 PM

Latest Report: Oct 9, 2015 at 3:00 PM

Visibility: 15 mi

Pressure: 30.09 "Hg

Humidity: 63%

Dew point: 43 °F

Location of Sault Ste. MarieLocation

Historic Weather in Sault Ste. Marie — Graph


Sault Ste. Marie temperature yesterday

Maximum temperature yesterday: 52 °F (at 2:00 PM)
Minimum temperature yesterday: 36 °F (at 12:02 AM)
Average temperature yesterday: 47 °F

Past Weeks' High & Low Weather Summary

High75 °F (Sep 28, 2:00 PM)100% (Sep 27, 7:00 AM)30.68 "Hg (Sep 27, 7:00 AM)
Low36 °F (Sep 30, 5:00 AM)29% (Oct 2, 4:00 PM)29.84 "Hg (Oct 8, 10:00 PM)
Average53 °F73%30.26 "Hg
* Reported Sep 24 2:00 PM — Oct 9 2:00 PM, Sault Ste. Marie, Weather by CustomWeather, © 2015

Note: Actual official high and low records may vary slightly from our data, if they occured in-between our weather recording intervals... More about our weather records


Sault Ste. Marie weather history for previous 24 hours

Time TempWeatherWind HumidityBarometerVisibility
2:00 PM
Fri, Oct 9
55 °FBroken clouds.20 mph63%30.09 "Hg15 mi
1:00 PM55 °FBroken clouds.20 mph63%30.09 "Hg15 mi
12:00 PM55 °FPassing clouds.15 mph63%30.07 "Hg15 mi
11:00 AM52 °FPassing clouds.15 mph72%30.06 "Hg15 mi
10:00 AM50 °FPassing clouds.12 mph71%30.05 "Hg15 mi
9:00 AM46 °FPassing clouds.10 mph82%30.03 "Hg15 mi
8:00 AM45 °FPassing clouds.6 mph87%30.01 "Hg12 mi
7:00 AM48 °FPartly cloudy.10 mph87%29.97 "Hg12 mi
6:00 AM48 °FPartly cloudy.9 mph87%29.93 "Hg12 mi
5:50 AM48 °FPartly cloudy.7 mph94%29.92 "Hg12 mi
5:00 AM50 °FMostly cloudy.7 mph88%29.90 "Hg12 mi
4:48 AM50 °FMostly cloudy.7 mph88%29.89 "Hg12 mi
4:00 AM50 °FMostly cloudy.5 mph94%29.88 "Hg12 mi
3:00 AM50 °FOvercast.6 mph94%29.87 "Hg10 mi
2:00 AM50 °FLight rain. Mostly cloudy.5 mph94%29.85 "Hg10 mi
1:00 AM50 °FLight rain. Overcast.5 mph94%29.85 "Hg7 mi
12:00 AM50 °FLight rain. Fog.7 mph94%29.84 "Hg2 mi
10:00 PM
Thu, Oct 8
52 °FLight rain. Fog.7 mph94%29.84 "Hg2 mi
9:00 PM52 °FLight rain. Fog.7 mph94%29.85 "Hg2 mi
8:00 PM52 °FLight rain. Fog.7 mph94%29.86 "Hg2 mi
7:00 PM50 °FLight rain. Fog.7 mph94%29.88 "Hg2 mi
6:00 PM50 °FLight rain. Fog.6 mph100%29.90 "Hg2 mi
5:00 PM50 °FLight rain. Fog.6 mph94%29.90 "Hg2 mi
4:50 PM50 °FLight rain. Fog.6 mph94%29.91 "Hg2 mi
4:00 PM50 °FLight rain. Fog.9 mph94%29.91 "Hg3 mi
Weather by CustomWeather, © 2015

See weather overviewHow to use our weather pages